This demonstration page uses our WeatherBlox Daily Observations layout. Learn more.

39.29038, -76.61219

Hourly Observations for December 6, 2017

Temp ( °F °C ) Dew Point ( °F °C ) Humidity (%) Winds ( mph kmh ) Pressure ( in mb ) Visibility ( mi km ) Precip ( " mm )
12:54 am 00:54 undefined 57 13.9 55 12.8 93 93 undefined N/A 29.85 1011 N/A 0 0
1:54 am 01:54 undefined 54 12.2 40 4.4 59 59 undefined N/A 29.91 1013 N/A 0 0
2:54 am 02:54 undefined 52 11.1 25 -3.9 35 35 undefined N/A 29.91 1013 N/A 0 0
3:54 am 03:54 undefined 51 10.6 21 -6.1 31 31 undefined N/A 29.94 1014 N/A 0 0
4:54 am 04:54 undefined 49 9.4 20 -6.7 32 32 undefined N/A 29.97 1015 N/A 0 0
5:54 am 05:54 undefined 47 8.3 20 -6.7 34 34 undefined N/A 30.03 1017 N/A 0 0
6:54 am 06:54 undefined 44 6.7 16 -8.9 32 32 undefined N/A 30.03 1017 N/A 0 0
7:54 am 07:54 undefined 43 6.1 18 -7.8 37 37 undefined N/A 30.06 1018 N/A 0 0
8:54 am 08:54 undefined 42 5.6 17 -8.3 36 36 undefined N/A 30.09 1019 N/A 0 0
9:54 am 09:54 undefined 42 5.6 12 -11.1 29 29 undefined N/A 30.09 1019 N/A 0 0
10:54 am 10:54 undefined 43 6.1 14 -10 31 31 undefined N/A 30.09 1019 N/A 0 0
11:54 am 11:54 undefined 45 7.2 12 -11.1 26 26 undefined N/A 30.09 1019 N/A 0 0
12:54 pm 12:54 undefined 46 7.8 13 -10.6 26 26 undefined N/A 30.06 1018 N/A 0 0
1:54 pm 13:54 undefined 47 8.3 16 -8.9 29 29 undefined N/A 30.03 1017 N/A 0 0
2:54 pm 14:54 undefined 47 8.3 17 -8.3 30 30 undefined N/A 30.03 1017 N/A 0 0
3:54 pm 15:54 undefined 46 7.8 19 -7.2 34 34 undefined N/A 30.03 1017 N/A 0 0
4:54 pm 16:54 undefined 45 7.2 19 -7.2 35 35 undefined N/A 30.03 1017 N/A 0 0
5:54 pm 17:54 undefined 46 7.8 19 -7.2 34 34 undefined N/A 30.03 1017 N/A 0 0
6:54 pm 18:54 undefined 45 7.2 20 -6.7 37 37 undefined N/A 30.03 1017 N/A 0 0
7:54 pm 19:54 undefined 44 6.7 20 -6.7 38 38 undefined N/A 30.03 1017 N/A 0 0
8:54 pm 20:54 undefined 44 6.7 21 -6.1 40 40 undefined N/A 30.03 1017 N/A 0 0
9:54 pm 21:54 undefined 43 6.1 21 -6.1 42 42 undefined N/A 30.03 1017 N/A 0 0
10:54 pm 22:54 undefined 43 6.1 21 -6.1 42 42 undefined N/A 30.03 1017 N/A 0 0
11:54 pm 23:54 undefined 42 5.6 22 -5.6 45 45 undefined N/A 30.03 1017 N/A 0 0

Powered by AerisWeather